Flag for Ukraine Weather past 2 weeks in Chernobyl, Ukraine

Now
61 °F

Cool.


Feels Like: 61 °F
Forecast: 57 / 84 °F
Wind: 6 mph from North

Location: Hostomel

Current Time: Jul 3, 2015 at 6:03:23 AM

Latest Report: Jul 3, 2015 at 5:00 AM


Visibility: N/A

Pressure: 30.24 "Hg

Humidity: 83%

Dew point: 55 °F

Location of ChernobylLocation

Historic Weather in Chernobyl — Graph

°F

Chernobyl temperature yesterday

Maximum temperature yesterday: 75 °F (at 1:00 PM)
Minimum temperature yesterday: 55 °F (at 5:00 AM)
Average temperature yesterday: 67 °F

Past Weeks' High & Low Weather Summary

 TemperatureHumidityPressure
High84 °F (Jun 24, 3:00 PM)100% (Jun 22, 9:00 AM)30.24 "Hg (Jun 22, 9:00 AM)
Low48 °F (Jun 18, 6:00 AM)25% (Jun 18, 5:00 PM)29.74 "Hg (Jun 19, 4:00 PM)
Average67 °F57%29.93 "Hg
* Reported Jun 18 5:00 AM — Jul 3 5:00 AM, Chernobyl, Weather by CustomWeather, © 2015

Note: Actual official high and low records may vary slightly from our data, if they occured in-between our weather recording intervals... More about our weather records

Advertising

Chernobyl weather history for previous 24 hours

 ConditionsComfort  
Time TempWeatherWind HumidityBarometerVisibility
5:00 AM
Fri, Jul 3
61 °FCool.6 mph83%30.24 "HgN/A
4:00 AM59 °FCool.6 mph88%30.24 "HgN/A
3:00 AM57 °FCool.6 mph94%30.24 "HgN/A
2:00 AM61 °FCool.6 mph88%30.24 "HgN/A
1:00 AM64 °FMild.3 mph78%30.24 "HgN/A
12:30 AM66 °FClear.3 mph73%30.24 "Hg10 mi
12:00 AM64 °FClear.3 mph78%30.24 "Hg10 mi
11:30 PM
Thu, Jul 2
64 °FClear.3 mph83%30.24 "Hg10 mi
11:00 PM66 °FClear.3 mph78%30.21 "Hg10 mi
10:30 PM66 °FClear.No wind78%30.21 "Hg10 mi
10:00 PM68 °FSunny.1 mph73%30.21 "Hg10 mi
9:30 PM68 °FSunny.1 mph73%30.21 "Hg10 mi
9:00 PM70 °FSunny.1 mph69%30.18 "Hg10 mi
8:30 PM70 °FSunny.1 mph69%30.18 "Hg10 mi
8:00 PM70 °FSunny.3 mph73%30.18 "Hg10 mi
7:30 PM70 °FSunny.1 mph69%30.18 "Hg10 mi
7:00 PM70 °FPassing clouds.3 mph69%30.15 "HgN/A
6:30 PM70 °FBroken clouds.1 mph73%30.15 "HgN/A
6:00 PM70 °FPartly sunny.3 mph73%30.15 "HgN/A
5:30 PM68 °FBroken clouds.3 mph78%30.15 "HgN/A
5:00 PM68 °FBroken clouds.6 mph78%30.15 "HgN/A
4:30 PM66 °FSprinkles. Broken clouds.10 mph78%30.15 "HgN/A
4:00 PM72 °FPartly sunny.10 mph57%30.15 "HgN/A
3:30 PM75 °FPartly sunny.10 mph44%30.15 "HgN/A
3:00 PM75 °FBroken clouds.10 mph44%30.15 "HgN/A
2:30 PM73 °FBroken clouds.10 mph47%30.15 "HgN/A
2:00 PM73 °FBroken clouds.8 mph50%30.15 "HgN/A
1:30 PM75 °FPartly sunny.13 mph44%30.15 "HgN/A
1:00 PM75 °FPartly sunny.10 mph47%30.15 "HgN/A
12:30 PM73 °FPartly sunny.8 mph53%30.15 "HgN/A
12:00 PM72 °FPartly sunny.8 mph57%30.15 "HgN/A
11:30 AM72 °FPartly sunny.10 mph61%30.15 "HgN/A
11:00 AM68 °FPartly sunny.8 mph69%30.15 "HgN/A
10:30 AM66 °FPartly sunny.8 mph78%30.15 "HgN/A
10:00 AM64 °FPartly sunny.8 mph83%30.15 "HgN/A
9:30 AM64 °FPartly sunny.8 mph83%30.15 "HgN/A
9:00 AM63 °FPartly sunny.8 mph88%30.15 "HgN/A
8:30 AM63 °FBroken clouds.6 mph83%30.15 "HgN/A
8:00 AM63 °FPartly sunny.8 mph83%30.12 "HgN/A
7:00 AM59 °FBroken clouds.6 mph94%30.12 "HgN/A
6:00 AM57 °FPassing clouds.3 mph100%30.12 "HgN/A
Weather by CustomWeather, © 2015

See weather overviewHow to use our weather pages